Location: Bovenkerk
(52.2915°N, 4.8336°E)
Time: 05:57:43
(UTC+00:00)

Cosmos 1850 Rocket - Pass Details

Date: 09 April 2020
Orbit: 754 x 786 km, 74.0° (Epoch: 02 June)

Event Time Altitude Azimuth Distance (km) Brightness Sun altitude
Exits shadow 20:24:23 14° 177° (S) 1,988 5.8 -16.5°
Maximum altitude 20:28:32 48° 107° (ESE) 986 4.2 -17.0°
Drops below altitude 10° 20:33:30 10° 34° (NE) 2,292 6.5 -17.6°
Sets 20:35:56 0° 29° (NNE) 3,223 7.4 -17.9°
